GFSCGP_850_rhum_093.txt.gz
RH
16 18 21 16 17 17 18 17 18 14 11 13 14 13 10 9 10 12 14 16 22 33 39 60 71 89 100 87 97 99 98 98 99 100 100 100 100 100 100 100 79 72 73 79
11 20 13 16 17 19 20 22 21 16 12 14 16 15 10 9 9 11 12 16 20 30 43 59 73 88 100 94 98 100 99 98 100 100 100 100 97 98 99 97 86 76 72 62
19 12 14 14 18 23 23 26 23 20 15 14 17 18 14 10 9 10 12 14 16 25 40 54 66 84 99 98 85 97 98 98 98 100 96 96 98 98 92 91 80 75 69 66
16 13 14 18 19 18 28 21 20 19 20 25 15 22 14 11 11 12 14 15 16 21 36 46 60 71 97 100 97 92 99 98 98 99 100 93 87 92 84 77 77 76 75 66
19 17 16 18 19 18 24 19 20 20 21 23 19 21 17 11 11 11 11 12 15 21 34 42 54 60 82 97 100 100 98 98 99 99 99 100 91 87 88 89 85 77 70 62
20 14 16 14 14 16 18 23 23 23 24 32 23 22 19 12 13 12 13 15 16 22 33 40 49 54 69 97 98 100 98 99 98 98 98 99 95 86 90 86 75 79 83 81
18 21 18 17 17 19 22 28 40 63 58 37 20 24 21 12 11 11 12 13 19 24 33 39 47 53 64 88 100 99 99 98 98 98 98 99 98 94 89 79 84 89 84 74
17 21 17 16 18 21 23 27 33 50 50 42 21 24 17 11 10 12 13 13 18 25 33 38 43 50 56 80 91 97 99 99 96 93 99 98 95 98 95 84 81 82 78 86
23 14 12 9 10 15 20 31 22 30 31 38 29 19 18 14 15 14 12 15 18 23 30 37 39 50 52 67 80 85 88 93 99 93 92 98 93 92 93 95 90 83 67 71
32 36 21 12 14 14 15 13 27 26 44 49 30 24 21 18 17 14 13 13 14 19 28 34 36 48 52 60 71 84 81 81 93 99 98 99 95 95 93 88 88 86 79 69
29 37 30 26 25 19 19 19 19 21 24 33 38 26 16 18 17 16 14 15 16 19 27 31 34 42 52 57 64 78 78 74 79 93 97 99 97 97 90 86 83 82 89 90
29 39 40 30 23 26 28 19 18 32 29 25 28 29 18 19 18 20 19 17 18 23 27 29 31 38 48 57 60 70 75 72 71 80 90 96 96 96 96 93 90 88 87 86
30 35 42 32 27 28 32 25 24 24 29 34 41 35 15 16 16 16 17 15 16 20 25 30 31 35 45 52 59 63 72 72 70 73 80 87 90 90 91 91 92 92 90 89
39 30 34 32 31 29 40 34 31 32 43 36 30 23 17 16 16 16 16 17 17 19 20 25 31 34 39 48 56 60 68 72 71 71 73 82 88 89 89 91 92 91 92 94
38 35 27 25 23 24 26 28 28 30 32 40 32 28 23 20 18 16 17 17 16 16 16 18 26 34 38 44 51 57 62 73 74 71 72 75 84 88 89 91 93 93 95 94
48 47 33 32 30 28 27 20 18 17 20 24 25 26 17 16 17 18 18 16 16 15 15 19 21 27 35 40 46 52 57 64 73 74 73 74 79 84 88 90 93 95 96 97
53 49 55 46 26 30 43 31 24 20 16 17 26 21 17 22 20 18 17 16 15 15 17 18 20 20 25 33 41 48 56 61 69 73 74 76 77 82 86 88 89 90 94 95
65 56 60 58 50 54 22 13 18 21 24 18 13 16 29 26 24 20 18 16 16 18 22 21 21 21 21 25 35 46 52 60 69 74 74 76 79 81 84 86 87 90 92 95
43 70 74 68 50 33 26 25 37 28 26 41 40 35 34 37 41 37 24 20 24 27 26 23 22 22 24 25 34 45 52 60 68 74 76 78 84 87 88 92 98 100 99 100
39 51 75 63 64 56 34 25 24 32 46 39 39 44 51 48 55 41 54 53 46 48 52 38 36 29 32 38 42 51 57 60 73 75 79 88 96 94 97 100 100 100 100 100
64 88 86 69 65 46 27 24 26 54 66 41 41 41 44 51 57 61 63 63 66 79 70 64 52 45 48 54 58 64 68 72 82 83 92 98 100 100 100 100 100 100 100 100
68 81 82 65 80 72 27 38 47 45 38 38 43 42 40 46 56 68 66 71 91 99 94 77 70 72 78 80 81 90 97 99 100 100 100 100 100 100 100 100 100 100 100 100
75 42 52 48 50 30 35 38 35 34 35 38 43 41 45 50 56 73 70 84 92 98 99 99 97 99 100 99 99 98 99 100 100 100 100 100 100 98 100 100 100 100 100 100
27 28 38 37 32 28 27 25 26 26 32 37 40 46 46 46 55 77 87 96 100 98 99 100 100 100 98 99 100 100 100 100 100 100 99 99 99 99 100 99 99 100 100 99
30 28 37 33 27 26 26 27 26 29 38 40 51 52 53 57 76 94 97 99 100 100 99 100 100 100 100 100 100 100 100 100 100 100 100 100 100 99 99 99 98 100 100 100
32 34 39 42 29 35 30 30 34 37 39 48 60 64 80 83 98 98 100 100 100 99 99 100 100 100 100 100 100 100 100 100 99 99 100 100 100 97 100 100 98 98 98 98

GFSCGP_850_rhum_096.txt.gz
RH
12 13 18 17 18 18 20 20 21 16 13 14 14 14 12 11 9 11 11 13 14 21 32 52 59 74 86 92 87 98 98 99 93 98 98 99 99 99 100 99 99 96 91 86
17 16 13 11 13 16 18 21 22 19 15 16 16 15 14 13 12 9 8 10 14 20 42 59 67 79 88 98 100 99 99 98 100 98 98 99 100 100 99 100 100 95 97 85
20 13 11 13 12 16 20 23 25 26 20 18 18 18 17 14 12 11 10 10 12 19 40 56 69 79 89 100 100 97 98 98 99 100 99 97 100 100 100 100 100 100 95 80
20 15 15 11 16 13 19 17 20 25 30 31 20 27 19 15 12 11 10 10 12 13 38 52 61 79 85 99 99 98 100 98 99 98 100 99 98 100 100 100 98 82 71 58
21 18 17 16 14 15 18 15 18 25 34 32 28 28 21 15 14 12 13 13 14 15 36 48 56 68 83 96 99 96 99 100 94 97 98 98 98 96 97 100 83 74 78 75
16 14 13 14 14 13 13 17 21 24 28 43 35 33 25 18 15 12 10 12 13 16 33 42 51 58 80 91 99 99 98 100 96 99 98 98 97 95 99 89 77 74 78 82
17 18 14 14 18 15 15 22 39 47 52 64 31 31 25 18 14 11 14 14 15 18 31 39 48 54 71 83 99 97 99 100 100 98 99 99 98 89 82 81 80 75 78 76
21 22 12 15 20 21 17 23 38 47 59 44 39 39 24 16 13 10 11 11 17 20 31 37 45 49 63 80 86 99 97 100 100 98 94 94 96 99 87 78 77 84 80 74
33 25 9 13 16 17 19 28 22 33 32 71 50 36 24 15 15 14 13 13 18 22 30 35 43 49 55 73 76 87 98 95 99 100 99 98 99 99 95 88 75 77 82 79
40 44 13 12 12 15 18 17 31 31 46 49 37 48 36 23 19 16 14 14 16 20 28 34 39 48 51 63 77 74 89 94 92 98 98 100 95 89 88 87 84 83 74 73
28 35 39 13 13 15 15 17 17 19 27 38 46 42 35 34 26 22 20 16 15 16 24 31 35 46 49 57 70 84 88 88 93 97 94 98 95 88 83 89 87 83 72 69
30 37 45 37 19 21 26 18 19 29 31 27 33 34 33 26 23 22 19 17 17 19 21 28 34 44 50 53 63 69 80 80 85 93 98 97 96 92 84 85 85 88 91 84
39 35 43 34 25 24 29 27 21 20 23 33 49 40 22 22 19 16 17 16 18 19 23 27 31 39 48 54 59 65 68 75 77 80 93 96 99 98 94 92 84 86 83 76
41 28 32 44 34 26 32 29 29 31 45 34 35 27 31 42 22 18 17 16 17 17 18 24 28 31 41 49 56 61 68 71 72 79 82 86 89 92 92 92 83 87 90 93
37 33 25 22 21 20 21 27 28 33 34 41 34 28 22 21 20 18 17 19 18 17 16 16 21 27 32 43 51 58 63 68 71 71 78 85 80 85 91 87 86 87 87 86
34 46 38 36 23 20 24 21 21 20 20 21 24 27 20 18 17 18 18 17 17 17 17 15 16 20 30 34 45 54 58 64 67 68 71 77 84 86 88 93 93 88 88 90
46 48 48 52 34 26 37 26 20 17 14 16 22 20 17 19 18 20 23 24 21 18 17 15 18 18 24 33 40 49 55 61 66 68 71 73 79 85 88 91 92 92 92 93
60 54 56 61 51 60 30 14 15 19 19 17 28 17 12 17 27 28 32 50 53 49 46 44 35 26 22 22 34 40 49 57 64 72 73 74 76 83 87 91 93 96 95 94
36 49 75 64 55 36 27 22 25 42 38 40 42 40 42 45 42 32 46 53 56 59 70 68 59 47 35 26 24 33 45 52 60 71 75 75 76 79 85 89 90 91 91 90
37 48 72 67 68 58 38 26 23 28 49 42 40 42 46 44 61 45 47 55 56 63 77 64 56 51 38 32 30 31 41 50 60 68 72 74 76 79 82 85 87 88 93 94
62 71 81 79 77 52 34 26 27 47 68 42 42 44 43 44 45 49 53 55 60 73 88 72 80 68 57 47 39 41 44 53 64 68 73 74 76 80 82 89 96 97 99 100
61 84 87 73 74 75 26 26 45 44 34 34 36 42 41 42 46 46 48 61 73 92 94 91 96 90 81 66 58 52 52 58 66 72 77 87 93 94 98 100 100 100 100 100
80 49 56 51 50 35 34 41 39 31 27 27 39 38 41 44 42 45 64 85 85 81 86 98 99 98 96 95 90 79 84 96 98 98 100 100 100 100 100 100 100 100 100 97
53 39 66 80 49 40 41 44 32 26 25 32 37 47 45 46 53 70 85 94 87 85 94 99 100 100 100 97 98 99 99 99 100 100 100 100 100 99 99 99 99 100 100 100
43 57 55 65 31 32 30 36 40 39 36 36 50 52 55 83 93 91 87 93 93 92 98 100 100 100 100 100 100 100 100 100 100 100 100 100 100 100 100 100 100 100 99 100
40 44 57 61 38 41 40 35 37 34 37 53 58 58 77 86 89 85 86 96 100 97 99 100 100 100 100 100 100 100 100 100 100 100 100 100 100 100 100 100 98 99 97 98

GFSCGP_850_rhum_102.txt.gz
RH
18 25 26 23 35 31 35 38 41 31 24 24 25 27 26 25 22 19 16 16 16 23 45 47 45 48 51 56 57 38 64 80 97 99 98 94 100 98 100 99 99 99 96 90
29 26 18 15 17 24 35 39 38 30 25 24 24 24 30 28 24 19 17 15 15 22 57 59 54 54 49 48 48 40 71 90 99 99 99 99 91 99 92 100 93 100 92 93
49 31 17 17 18 19 22 32 34 34 25 22 25 30 33 27 25 23 20 18 16 24 50 62 58 56 52 50 40 43 67 89 88 87 99 98 100 97 100 100 100 98 86 81
46 37 37 25 19 18 20 16 19 21 26 33 33 47 33 32 30 25 21 19 19 25 47 59 60 56 53 49 42 47 69 81 84 87 99 98 99 100 98 98 100 99 98 92
32 41 44 42 30 18 20 18 22 22 26 32 35 50 42 32 34 28 23 20 18 28 41 55 48 49 53 44 45 49 68 81 91 87 99 98 100 99 98 100 97 99 96 85
25 20 23 28 26 22 16 20 22 24 34 47 49 52 46 42 32 27 21 19 19 24 48 62 61 56 55 45 55 48 67 74 96 86 98 96 99 98 99 100 100 100 96 92
27 26 20 18 21 20 25 29 48 52 59 56 38 44 35 32 27 26 24 21 18 20 60 67 62 59 59 47 53 52 67 71 98 91 90 99 98 100 99 99 100 100 100 97
40 41 24 18 20 26 28 32 58 53 75 57 36 52 49 37 33 28 26 22 26 44 73 64 55 57 57 44 44 49 73 83 97 92 90 90 89 98 99 100 99 99 100 100
50 37 32 18 17 19 24 37 32 44 56 65 55 49 41 41 42 37 26 28 34 60 72 68 57 58 55 42 37 38 59 80 96 97 94 92 92 94 99 99 100 100 100 100
44 55 36 38 30 20 26 28 37 43 49 56 54 53 57 51 50 41 36 38 41 60 69 67 56 53 51 46 44 40 43 56 93 96 94 94 97 95 96 100 99 99 100 100
47 53 48 40 48 30 30 30 33 40 51 47 61 52 52 54 51 48 50 44 41 31 55 71 56 51 49 53 50 45 44 46 91 97 94 94 91 92 94 99 100 99 100 98
57 59 66 46 48 44 47 32 40 59 54 51 59 51 39 45 44 56 55 46 41 32 38 47 65 65 50 52 53 49 46 44 46 95 98 96 93 92 97 93 87 96 97 95
65 77 68 54 50 58 43 43 45 46 45 56 61 47 47 51 51 46 46 55 50 58 53 62 65 82 76 50 53 53 47 37 41 67 98 98 97 96 97 93 89 85 84 82
62 70 48 60 70 64 47 39 52 61 65 56 42 34 59 57 53 42 45 52 56 60 67 68 70 75 81 90 75 48 47 35 31 49 75 98 98 98 97 99 90 90 82 77
63 65 55 48 40 37 42 31 39 75 69 63 51 50 59 49 48 58 56 57 56 69 71 70 64 66 61 76 75 92 68 48 43 46 49 63 96 99 97 100 91 88 87 83
60 64 60 55 44 48 46 38 34 39 57 49 34 25 29 40 56 63 58 59 65 77 72 69 69 56 69 75 85 78 70 84 64 51 47 50 58 75 97 99 99 94 93 91
75 75 75 73 62 52 51 38 34 29 35 42 35 62 39 60 59 60 61 62 70 68 65 82 65 58 62 60 63 70 81 75 80 92 71 62 59 63 66 75 93 100 96 96
61 72 80 90 67 75 43 32 32 57 58 55 57 52 52 56 56 54 54 67 72 71 72 70 70 59 50 52 47 56 82 85 80 81 84 82 67 66 75 78 84 91 99 98
55 72 87 87 91 62 36 48 47 52 70 56 59 52 48 50 52 52 68 69 72 73 76 75 72 71 63 51 51 44 42 46 53 63 73 80 80 78 76 78 85 94 100 98
49 61 78 90 84 87 49 50 42 42 87 53 56 58 56 51 77 65 84 85 76 74 76 70 70 68 65 63 55 58 54 48 84 90 91 87 84 87 83 84 86 92 100 99
71 89 81 95 96 81 53 42 37 56 66 47 49 49 52 61 59 72 84 75 73 77 78 76 67 63 64 69 71 70 74 73 87 94 94 91 89 92 94 90 95 96 98 100
72 82 92 90 93 81 40 45 49 59 47 46 46 45 48 43 44 66 74 71 69 79 75 70 67 68 61 73 85 90 86 88 86 100 100 98 91 90 92 96 100 100 100 100
96 69 82 74 71 48 47 51 53 41 44 48 46 46 43 47 73 79 80 77 83 92 90 86 85 86 77 79 93 100 100 99 99 100 100 100 100 99 100 100 100 100 100 100
96 88 75 70 59 72 67 52 49 48 48 50 50 48 39 53 76 75 76 72 77 93 90 91 100 99 98 99 99 100 100 99 100 100 100 100 100 100 100 100 100 100 100 100
92 89 90 88 79 71 68 55 61 54 52 54 55 53 54 52 63 77 83 84 93 95 84 97 99 98 99 100 99 99 100 100 100 100 100 100 100 100 100 100 100 100 100 99
94 100 100 100 94 94 86 63 67 56 61 56 49 48 50 54 61 67 91 99 100 95 90 93 99 100 100 100 99 99 100 100 100 100 100 99 100 100 100 100 100 100 97 96

GFSCGP_850_rhum_105.txt.gz
RH
20 24 27 24 38 29 32 41 44 34 29 28 32 31 27 24 21 29 23 19 19 18 22 24 30 41 51 61 63 59 53 46 69 67 88 93 97 99 100 100 96 95 100 99
40 35 21 22 25 33 41 42 43 37 30 30 32 31 24 26 28 25 22 22 21 19 23 40 37 49 58 59 61 58 46 54 68 73 86 99 99 100 100 99 99 91 98 99
37 38 31 21 22 22 25 35 39 41 31 29 30 30 25 24 29 25 24 22 22 20 20 29 44 45 61 61 55 57 43 63 72 74 94 100 100 100 100 100 100 99 99 100
35 26 34 28 22 21 23 20 22 27 34 41 30 37 32 31 27 27 26 24 23 21 22 28 38 53 58 57 58 56 44 72 69 72 80 80 89 100 98 99 100 100 100 97
17 50 44 42 42 20 22 19 22 23 27 28 26 52 34 32 36 31 24 23 22 21 19 28 33 43 63 60 56 51 47 79 75 74 76 84 97 98 99 100 100 94 95 95
16 23 38 43 36 29 20 22 23 26 34 46 31 40 34 37 33 32 27 23 22 21 20 32 40 53 62 67 67 48 51 84 82 82 89 97 93 100 98 100 100 100 100 89
26 27 23 20 24 22 26 36 49 58 70 50 36 50 33 32 28 31 39 34 28 24 22 36 47 51 63 65 68 49 61 84 79 87 83 98 93 98 100 98 100 98 100 97
38 28 26 23 25 30 32 35 57 53 65 55 42 56 40 32 35 38 41 41 44 33 31 39 50 51 62 64 60 45 63 82 78 86 80 98 96 96 100 100 100 100 99 90
50 40 25 21 18 21 26 41 26 38 54 65 57 49 37 41 42 45 49 47 46 72 76 72 84 74 63 61 52 37 65 72 76 80 80 88 93 99 97 95 99 99 100 95
56 64 37 36 23 22 24 25 35 50 50 57 54 54 49 43 46 47 51 53 57 50 58 73 87 91 77 58 51 44 64 64 69 80 85 86 89 94 100 99 100 100 100 100
68 64 53 41 42 39 29 33 38 35 52 48 55 55 44 42 53 49 50 60 62 66 75 80 79 81 83 84 63 50 63 71 74 81 88 89 90 95 96 100 99 99 100 97
77 74 76 51 54 47 48 31 30 54 56 58 56 52 62 53 59 65 69 59 60 58 73 76 75 72 81 91 85 90 82 63 60 74 88 91 93 95 94 97 99 99 100 99
78 88 85 69 60 54 54 44 50 49 55 58 66 63 63 58 61 61 76 78 73 64 68 88 90 86 85 84 91 96 90 98 87 72 82 91 94 97 94 94 96 100 100 99
68 79 94 95 82 64 55 41 61 60 63 69 58 59 74 68 64 63 68 67 68 66 60 73 87 90 98 95 87 81 87 96 93 85 93 96 94 94 96 98 95 97 98 100
74 93 91 74 50 58 68 50 42 66 74 68 54 43 48 65 61 66 68 83 76 68 66 67 77 87 78 80 81 85 81 76 80 84 87 98 100 99 97 99 99 97 95 89
69 95 95 83 60 50 64 61 44 45 64 74 74 38 49 68 61 62 70 86 89 72 69 65 81 72 75 77 77 89 92 92 86 76 73 81 100 100 100 98 100 100 96 91
67 88 93 79 64 60 53 55 46 50 53 63 79 61 67 66 62 65 70 79 83 85 72 57 66 75 61 57 59 62 68 75 82 84 82 76 79 87 100 100 100 100 100 93
56 70 85 87 70 60 48 42 50 67 60 50 62 67 60 58 59 64 69 77 85 88 80 72 61 66 67 55 48 55 52 59 88 93 84 76 74 74 84 96 99 100 100 100
57 73 87 84 80 57 45 57 49 68 74 64 59 68 60 59 72 83 85 76 88 88 82 80 73 65 58 58 58 53 60 69 70 82 89 89 81 86 90 95 97 98 100 98
58 62 77 91 87 85 48 45 46 55 88 62 68 70 60 57 72 75 94 84 81 86 88 82 76 76 67 61 60 61 54 58 71 86 99 100 100 94 90 91 99 100 100 100
82 91 80 95 93 78 57 48 42 65 75 61 54 55 56 67 65 90 89 83 85 86 79 81 80 72 66 58 64 71 69 64 69 94 96 100 100 100 96 94 92 98 100 100
94 84 94 92 92 84 43 52 49 61 50 48 51 52 56 90 99 94 90 87 84 84 84 74 76 86 91 88 83 84 94 97 92 97 100 100 100 100 100 100 94 100 100 100
98 89 75 72 72 50 59 61 59 51 45 53 48 54 61 80 90 87 88 84 86 88 86 88 89 78 90 98 98 98 100 97 98 98 99 100 100 100 100 100 100 100 98 98
100 98 95 64 53 68 68 63 62 52 53 57 57 52 50 64 80 83 91 96 95 90 85 89 85 82 95 100 99 99 98 99 98 100 100 100 100 100 100 100 100 100 100 100
99 100 97 87 87 80 79 81 68 58 67 56 52 50 54 55 66 81 96 100 100 98 93 94 94 94 93 95 99 98 99 100 100 100 100 100 100 100 100 100 100 100 100 100
96 100 100 95 97 97 95 87 74 75 75 60 53 55 64 68 71 76 85 99 99 94 93 92 95 94 96 99 100 99 99 100 100 100 100 100 100 100 100 100 100 100 99 99

GFSCGP_850_rhum_108.txt.gz
RH
20 24 27 24 34 26 32 40 45 38 32 31 37 36 34 28 25 26 21 18 17 18 20 18 17 15 18 34 39 48 64 66 62 62 74 99 99 97 99 96 95 100 99 100
40 34 21 20 29 36 39 38 38 40 34 33 35 34 29 28 27 22 20 18 16 21 21 20 19 19 22 43 48 55 66 65 53 61 65 97 100 97 98 98 99 100 99 100
34 34 29 26 28 29 33 39 40 42 34 34 35 32 22 21 24 20 20 21 22 22 20 20 19 19 30 40 55 60 68 66 50 69 72 95 99 99 99 99 99 100 100 100
33 23 29 37 33 25 28 27 30 36 36 42 33 37 23 24 24 29 27 22 22 20 21 21 20 18 28 50 61 68 70 65 56 77 70 91 99 98 99 100 98 97 100 100
27 35 31 33 32 23 24 21 25 27 36 31 29 34 31 27 30 24 25 33 40 34 22 20 20 18 26 49 66 69 68 61 64 78 66 87 98 100 99 99 100 99 100 100
16 24 34 26 27 25 22 22 24 29 36 48 34 36 37 30 23 33 43 46 57 43 30 23 23 32 38 59 73 68 66 58 68 75 69 82 95 98 98 99 100 100 100 100
18 24 21 23 26 36 30 38 55 61 59 50 32 41 30 28 28 42 49 54 56 60 56 30 28 30 37 58 73 71 68 56 67 73 74 89 94 97 100 98 100 100 100 100
34 30 25 23 28 34 42 40 59 56 73 55 46 49 42 31 39 43 54 62 61 62 62 71 55 58 62 74 76 73 66 54 69 64 86 100 98 92 99 96 94 100 100 100
49 36 25 22 24 25 33 39 33 40 53 59 54 49 41 43 49 53 59 63 64 69 68 79 82 72 76 87 82 78 71 55 64 61 90 97 99 94 93 99 100 100 100 97
63 68 44 34 22 25 30 30 42 49 51 53 51 58 50 50 52 59 65 68 66 61 64 87 90 91 95 92 87 82 72 65 71 78 94 94 87 99 92 98 100 100 99 97
85 67 58 52 40 34 32 38 36 43 55 52 53 54 47 40 54 76 74 67 69 61 75 95 88 100 100 100 95 88 69 73 78 87 95 99 96 95 100 95 96 99 100 100
90 85 71 58 69 61 41 35 35 54 51 61 55 49 72 71 71 71 69 79 73 55 68 97 100 100 100 100 97 87 74 84 84 95 99 97 98 97 99 100 96 95 100 100
99 87 86 74 74 70 59 48 57 36 56 59 71 57 61 70 75 69 76 70 71 68 56 85 100 100 100 100 90 78 73 73 92 100 100 99 99 98 98 99 99 99 96 98
84 99 91 93 86 71 95 56 50 50 52 46 60 79 73 74 78 73 76 74 76 79 69 71 86 98 100 100 100 92 83 78 70 86 98 100 99 96 96 97 98 100 99 96
74 97 87 66 60 63 72 94 66 74 65 53 67 54 48 72 81 76 74 76 83 77 74 79 75 72 91 100 100 100 95 91 90 88 82 74 81 98 97 94 95 98 100 98
72 94 89 75 50 46 77 81 94 57 68 79 73 76 77 73 78 84 86 83 84 80 65 78 77 76 64 76 88 87 100 94 92 93 92 90 86 78 95 96 94 95 97 98
69 94 92 74 72 67 79 74 65 62 56 66 63 69 71 78 80 83 82 82 86 85 87 86 80 70 75 68 74 92 85 87 80 87 96 94 93 89 85 90 93 97 97 98
76 71 89 84 82 55 44 56 52 63 63 55 64 72 72 71 76 83 83 86 91 89 82 82 77 67 65 63 59 67 83 66 63 99 100 100 95 98 94 93 98 100 98 98
74 72 86 90 79 55 51 54 57 65 76 67 71 80 83 92 90 99 81 77 84 85 86 85 78 75 66 60 64 65 62 67 56 57 70 78 99 98 100 96 89 91 100 98
65 67 80 86 76 80 44 46 47 66 92 77 73 72 83 84 93 91 99 96 89 88 85 82 78 72 64 62 65 74 65 63 59 60 59 84 91 99 99 100 100 89 97 99
91 90 83 91 89 68 51 50 51 77 70 70 66 80 83 63 75 98 92 90 95 92 86 84 84 77 77 84 91 88 91 84 90 94 100 100 100 99 99 100 100 100 98 98
94 94 94 89 93 81 42 51 62 67 67 62 57 57 75 95 100 90 82 82 89 90 88 82 77 75 69 72 78 99 99 99 100 100 99 99 100 100 100 100 100 100 100 100
99 96 92 78 72 50 57 68 63 62 56 62 56 77 82 99 96 93 94 94 95 96 96 90 81 75 70 69 85 99 100 99 98 95 97 98 99 100 100 100 100 100 100 100
99 97 98 91 70 84 96 81 76 71 80 79 81 83 74 77 84 91 100 100 100 97 92 91 86 79 72 67 69 86 99 100 100 100 100 98 100 100 100 100 100 100 100 100
94 100 100 91 89 90 89 94 91 85 72 72 76 68 64 62 80 86 95 98 100 97 93 88 86 84 84 83 81 83 90 97 98 98 98 100 100 100 100 100 100 100 100 100
98 100 100 100 98 99 99 100 94 79 78 75 79 81 82 74 76 78 83 96 100 98 98 94 88 84 80 79 79 81 87 96 100 99 100 100 100 100 100 100 100 100 100 99

GFSCGP_850_rhum_111.txt.gz
RH
24 26 25 20 24 21 22 31 32 31 29 30 30 29 26 25 25 25 24 23 21 14 14 15 17 17 18 18 18 24 42 57 69 74 71 78 86 89 98 98 99 99 99 100
34 34 22 18 25 25 25 25 24 23 27 28 27 27 22 22 23 22 22 20 18 15 14 15 19 18 18 23 25 27 47 59 73 72 62 62 88 99 98 92 97 98 98 94
32 26 25 24 23 24 25 27 25 24 25 30 33 26 17 13 19 19 21 20 20 25 24 21 20 19 18 23 31 32 46 61 68 67 58 64 99 99 98 94 99 92 97 99
23 19 26 34 30 22 26 22 24 26 32 29 25 20 18 16 15 23 22 32 42 48 36 24 20 19 18 26 42 50 59 67 70 65 49 67 98 99 96 92 93 95 94 100
23 28 28 29 32 27 29 23 25 26 30 30 23 26 19 23 23 22 42 49 56 63 47 30 26 21 21 23 34 51 70 71 70 63 50 72 100 99 98 98 97 98 98 100
24 19 23 20 21 24 22 23 24 28 28 32 23 23 22 19 19 43 48 54 60 58 46 42 29 26 26 32 41 63 76 75 71 60 58 77 97 100 99 97 96 98 100 99
22 21 16 27 24 26 24 26 34 41 43 38 29 28 20 23 33 45 53 58 64 62 52 52 49 49 48 50 57 74 85 78 74 64 78 82 94 91 94 96 97 100 100 100
46 37 16 14 24 30 30 29 35 37 42 32 31 34 25 23 26 52 60 62 62 64 70 65 59 65 73 70 79 83 89 81 74 74 85 90 90 93 96 100 100 100 100 100
62 31 20 17 19 31 40 39 27 38 49 47 40 34 34 39 52 54 61 62 66 74 88 89 67 76 83 95 97 98 92 87 75 79 79 91 98 98 97 99 100 100 100 100
85 80 39 31 15 19 32 31 45 41 44 48 40 45 31 53 61 59 64 64 67 80 92 97 94 92 98 98 97 100 100 92 71 81 74 93 98 98 95 87 99 100 100 100
100 79 49 45 26 19 22 36 35 34 40 35 35 34 41 43 53 62 65 65 69 78 91 99 98 98 99 98 100 100 100 100 77 96 79 88 98 98 96 93 100 100 100 100
98 97 78 42 71 71 25 23 31 39 44 40 34 34 60 61 60 60 69 66 68 64 80 91 97 100 100 100 100 100 98 100 98 89 79 78 99 100 98 97 98 100 100 100
99 94 88 55 60 59 79 52 41 29 46 37 45 35 64 62 60 72 73 71 73 66 65 70 76 97 100 100 100 100 100 94 100 89 75 78 98 98 93 96 93 94 100 100
98 99 97 73 72 68 81 84 75 55 38 32 40 66 72 67 63 67 78 82 82 73 67 66 69 74 92 100 100 100 100 100 100 84 65 57 96 98 93 91 91 95 91 95
78 96 96 82 55 59 69 77 82 74 56 36 28 40 61 62 64 66 79 79 79 79 77 68 70 70 78 88 99 100 100 100 100 98 82 70 76 92 94 93 92 92 95 92
57 81 85 87 60 45 54 73 73 54 69 65 62 70 72 67 74 76 78 76 85 93 97 100 95 90 73 84 88 97 100 100 100 100 96 92 87 85 95 97 94 92 90 95
72 76 71 58 58 62 57 72 71 59 57 59 58 68 77 84 84 81 82 86 89 91 93 89 86 87 83 80 75 86 93 99 100 100 100 100 100 95 87 93 98 94 93 91
76 72 70 73 65 68 38 56 51 63 66 55 66 73 74 80 90 94 92 91 95 90 93 90 88 76 72 76 79 91 92 89 98 98 99 100 100 100 99 96 99 100 95 95
76 68 76 78 66 47 57 52 55 62 69 64 70 76 81 82 76 97 100 98 98 92 88 86 86 78 73 61 62 95 80 78 92 91 99 98 100 100 100 100 99 99 99 98
70 70 74 62 74 66 46 41 45 56 69 76 69 83 76 74 93 87 97 90 88 86 84 83 77 73 65 64 67 60 62 75 83 84 89 100 100 99 99 98 99 98 99 100
79 83 80 72 72 55 44 44 56 65 74 79 83 87 85 89 89 95 92 86 89 89 89 84 77 74 69 67 74 78 81 74 79 80 87 96 100 98 100 100 100 100 99 100
92 90 83 76 81 67 51 53 70 74 78 72 75 79 91 99 99 94 94 94 97 95 92 88 82 78 73 68 69 76 90 94 92 86 92 95 100 100 99 97 100 100 100 100
94 96 92 70 59 60 88 94 93 75 67 72 77 98 99 99 100 98 96 99 100 98 93 90 84 81 76 75 79 79 92 99 99 96 94 93 96 98 98 99 100 100 100 100
84 91 100 96 74 82 99 100 100 99 94 95 97 94 85 86 93 96 99 96 89 91 90 90 87 82 78 76 77 84 94 100 99 98 100 98 98 99 99 100 100 100 100 100
96 98 100 91 78 93 99 100 99 99 88 88 83 79 82 88 97 96 98 98 96 94 93 91 87 83 79 78 80 80 84 96 99 100 99 100 100 99 100 100 100 100 100 100
99 100 97 99 98 99 99 100 100 99 98 88 72 86 89 82 84 88 98 100 100 98 94 89 88 84 80 80 82 84 89 98 100 100 99 99 99 99 100 100 100 100 100 100

GFSCGP_850_rhum_114.txt.gz
RH
16 20 12 8 9 10 13 13 14 12 12 21 19 18 16 14 16 18 19 19 18 19 18 17 17 24 18 20 24 57 78 72 51 58 63 69 70 61 83 94 92 94 96 100
14 20 11 7 7 9 14 15 14 11 10 16 17 15 12 11 13 16 17 17 15 14 15 15 17 31 17 21 26 63 76 91 61 62 65 69 65 60 69 86 90 98 98 98
19 11 9 11 16 15 15 15 13 14 12 12 15 17 14 11 11 11 12 12 12 13 14 19 21 26 41 23 33 64 78 93 70 78 73 78 92 65 80 87 94 95 99 99
20 13 12 11 18 14 17 11 14 16 17 19 13 18 10 13 12 11 11 13 17 22 29 29 26 24 36 40 49 46 87 95 94 95 81 85 90 83 86 94 92 91 93 94
26 18 17 17 13 14 17 12 17 20 20 20 17 19 12 10 11 13 13 22 32 38 42 42 38 30 33 62 52 39 63 89 92 97 98 91 89 91 96 99 97 86 95 95
25 20 19 18 14 11 15 20 19 18 19 26 18 18 13 10 14 13 30 36 44 44 47 48 52 46 47 74 46 48 69 95 83 86 96 92 77 62 93 98 88 92 92 95
35 19 16 17 21 14 15 22 22 25 27 23 12 18 15 11 19 22 34 43 45 47 54 52 54 58 60 85 69 68 99 99 80 82 75 72 60 65 99 97 98 95 90 92
66 42 19 16 20 16 17 20 20 22 21 19 18 24 16 12 15 36 43 46 48 53 61 62 67 73 80 90 88 96 100 97 85 82 73 62 60 92 98 100 99 90 93 95
85 61 20 18 15 14 16 21 14 14 14 22 16 19 13 17 14 37 42 46 52 60 68 73 79 86 92 100 100 98 98 100 93 92 95 89 72 96 100 100 96 98 95 94
92 85 32 30 13 14 13 14 20 15 24 22 13 16 19 24 31 39 44 46 56 66 76 90 90 97 99 98 98 98 98 100 96 98 96 94 91 99 99 91 93 98 99 95
94 98 45 32 19 15 21 26 19 14 18 18 20 18 16 28 34 42 44 49 56 66 72 85 100 98 99 99 99 100 100 100 100 100 83 91 87 100 92 94 89 98 98 99
88 98 76 47 46 33 14 22 21 26 23 20 19 18 34 30 34 41 46 49 54 62 70 79 92 99 98 99 99 99 100 100 100 94 87 84 98 99 90 89 90 99 98 99
66 85 61 49 52 73 68 18 22 24 19 23 30 20 39 42 40 46 49 54 53 56 60 64 70 81 99 98 100 100 100 100 100 90 99 98 100 100 98 93 88 92 100 100
52 98 96 92 95 65 91 88 48 22 31 26 21 19 44 43 49 49 54 59 53 53 58 68 77 89 71 93 100 100 100 100 99 99 99 99 99 98 95 98 89 90 98 100
52 69 78 66 60 39 57 77 82 58 28 29 20 17 24 35 45 52 56 58 60 61 73 76 86 99 98 74 87 100 100 100 100 99 98 94 98 98 89 89 90 88 92 92
52 68 57 54 58 42 42 60 51 56 56 32 27 20 16 29 44 54 55 56 64 67 72 79 84 88 92 88 75 88 97 99 100 100 98 95 100 100 95 89 87 86 89 93
70 58 54 52 40 53 58 60 47 43 42 46 49 32 45 41 52 58 59 65 69 73 77 81 83 86 79 89 91 80 85 94 100 100 100 100 99 99 97 95 91 88 87 87
74 61 51 57 42 80 46 43 40 43 42 44 40 48 66 72 84 83 77 76 76 78 81 84 84 85 80 72 83 78 77 91 100 100 100 100 100 100 100 99 97 94 91 89
61 63 57 60 53 32 56 42 56 60 54 58 48 62 77 78 72 85 82 83 84 86 87 89 89 87 87 74 82 78 72 73 85 98 100 100 100 100 100 100 99 99 98 92
53 62 65 50 58 55 50 35 36 48 92 63 56 64 65 58 75 89 92 84 84 85 88 90 90 88 88 86 96 77 80 74 76 81 94 100 100 99 100 100 100 100 100 99
58 63 66 55 54 37 45 45 42 79 87 77 74 83 70 74 96 98 91 87 88 87 90 90 92 90 92 97 97 93 99 84 94 100 98 91 97 99 99 99 99 100 100 99
79 74 69 59 65 59 48 48 70 67 68 95 88 83 83 96 100 98 92 94 92 89 92 92 89 94 93 87 91 98 91 99 100 99 98 93 90 99 99 100 99 99 100 99
84 97 96 64 49 44 58 79 94 92 84 93 80 80 92 96 92 92 98 99 100 98 97 95 92 93 93 90 84 94 94 100 100 100 100 100 100 100 100 99 100 100 100 100
67 60 95 95 91 97 100 97 94 98 100 100 94 94 93 90 90 85 82 86 94 97 96 94 96 95 96 95 93 90 92 100 100 99 100 100 100 100 100 99 99 100 100 100
90 99 96 89 84 97 100 99 100 100 99 99 91 86 84 84 87 89 92 97 100 100 99 96 96 99 99 93 83 82 93 99 99 100 100 100 100 99 99 99 99 100 100 100
97 100 94 97 98 98 98 98 100 99 99 99 95 96 97 95 97 98 100 100 100 100 99 98 92 94 90 85 84 88 93 100 99 99 99 99 100 100 100 100 100 100 100 100

GFSCGP_850_rhum_117.txt.gz
RH
14 13 16 9 8 8 9 10 11 12 9 11 12 12 11 12 12 13 15 15 16 16 16 16 16 16 16 18 31 38 45 70 88 97 98 96 79 67 73 73 68 60 79 88
15 16 9 6 8 7 6 9 12 8 7 8 9 12 14 12 10 11 12 13 15 16 16 16 17 17 18 22 42 45 51 69 87 99 100 96 96 81 95 94 82 58 65 86
16 13 10 11 10 9 9 8 9 9 8 8 10 11 10 9 9 8 8 9 12 13 14 13 13 15 18 32 44 51 54 66 84 100 99 100 100 99 96 85 69 92 79 85
20 16 14 13 12 9 13 8 9 8 10 12 10 14 9 8 8 8 8 9 10 10 10 11 13 17 20 27 46 55 56 65 87 98 99 92 96 95 88 91 76 93 92 87
30 22 20 16 14 10 9 8 11 10 12 14 11 10 8 8 9 9 9 9 10 15 20 23 23 22 22 22 48 65 62 66 89 97 93 96 83 92 89 89 94 99 92 90
22 20 22 19 16 14 13 11 12 14 14 23 15 12 9 8 9 10 12 14 19 27 30 30 31 39 30 39 65 86 75 71 88 91 91 93 86 81 78 87 91 99 96 89
29 24 18 18 20 16 16 18 20 28 26 25 12 12 11 8 7 8 17 25 31 34 36 37 38 41 37 54 82 99 97 84 98 99 91 92 89 86 87 88 91 99 100 96
41 48 27 39 38 21 18 18 22 30 26 19 9 12 9 7 7 12 21 29 34 36 43 45 50 54 58 69 84 100 100 100 97 100 97 96 95 93 92 94 89 96 93 92
69 52 36 28 26 28 17 19 13 20 15 17 11 9 9 8 10 22 28 31 36 42 48 53 63 72 76 84 93 98 98 100 98 99 99 98 99 94 94 95 94 99 96 87
68 88 38 33 46 31 16 12 20 19 28 24 12 12 12 12 14 22 26 31 41 51 60 71 76 86 92 98 98 98 98 100 99 98 99 100 100 97 96 93 99 98 86 97
51 91 50 54 56 28 17 17 12 15 18 22 18 13 9 10 12 17 24 34 43 50 58 72 91 100 98 99 99 98 98 100 98 100 99 97 96 99 100 99 97 91 83 91
75 88 72 54 46 50 36 14 13 19 21 15 14 14 16 12 17 19 35 37 46 53 59 67 84 98 97 98 100 99 99 99 99 100 100 97 99 100 100 97 96 91 91 95
52 65 80 42 58 56 55 23 14 15 14 16 23 16 21 18 27 36 41 40 46 49 52 59 68 84 100 99 99 99 100 100 100 99 99 98 99 100 98 94 93 86 94 100
47 64 81 90 87 62 95 67 26 22 31 18 16 12 48 22 21 41 40 42 44 45 54 63 74 84 96 91 99 100 99 99 100 100 99 100 99 98 99 94 92 89 91 98
43 68 56 43 33 41 51 70 41 42 45 33 21 15 23 26 29 36 42 43 45 56 60 64 74 86 91 86 89 92 100 100 100 100 98 97 98 95 98 96 93 94 98 96
45 61 46 43 41 41 60 74 65 37 30 24 21 24 16 34 36 33 40 45 56 58 61 66 68 73 86 85 86 86 82 92 100 100 100 99 96 99 95 96 99 94 96 98
60 60 56 47 35 59 84 63 55 59 56 34 38 26 36 22 66 41 47 60 65 60 63 65 67 70 72 89 86 89 84 85 93 100 99 100 99 96 95 98 97 98 98 97
56 64 49 50 45 89 63 33 51 50 42 47 54 66 63 58 81 79 75 71 66 66 66 67 67 68 71 77 90 90 90 88 85 92 100 99 100 100 100 99 98 92 98 98
41 57 63 54 49 49 53 38 37 45 51 55 47 51 71 74 66 77 72 71 69 69 68 70 70 71 73 77 84 91 85 93 93 82 90 98 100 100 100 100 100 96 94 93
39 52 61 49 48 62 48 37 31 35 75 66 76 70 74 69 85 92 72 68 66 68 70 71 71 73 77 80 81 85 88 86 95 93 85 91 100 100 100 100 100 100 98 95
54 56 60 49 54 34 42 41 43 80 98 79 98 82 88 93 98 97 81 72 69 72 76 72 74 74 79 82 81 81 89 83 92 97 95 100 93 92 100 100 100 100 100 100
62 79 84 57 52 61 64 53 92 94 85 97 98 92 81 79 88 94 90 79 74 73 74 72 72 77 80 82 83 83 92 94 99 92 78 78 84 89 90 99 100 100 100 100
87 80 88 76 72 84 96 98 96 96 99 100 100 90 90 90 85 85 78 73 76 75 73 73 74 78 83 86 90 90 99 100 100 100 99 97 93 90 96 98 100 100 100 100
56 64 77 66 68 90 99 98 100 100 100 100 88 83 83 76 72 72 78 78 76 79 78 80 81 79 83 88 94 99 100 100 99 99 98 98 100 99 99 99 100 100 100 100
79 96 84 63 61 75 79 98 98 100 100 99 98 77 75 76 77 75 80 84 83 84 85 90 92 91 88 95 100 98 100 100 100 100 100 99 99 99 100 99 100 100 100 100
91 97 89 90 98 99 94 98 98 98 99 99 99 93 80 79 83 88 97 100 100 100 100 100 100 100 100 100 97 93 99 100 100 100 100 100 100 100 100 100 100 100 100 100

GFSCGP_850_rhum_123.txt.gz
RH
15 23 26 20 19 18 19 20 18 14 10 10 10 9 8 8 11 11 14 14 15 15 15 15 14 14 13 12 11 13 21 34 41 47 46 67 61 81 79 81 93 80 82 96
23 28 21 20 20 22 22 23 22 16 12 11 10 10 7 8 9 9 10 10 12 12 14 15 16 15 15 14 12 14 16 30 37 39 42 49 48 69 76 86 98 99 92 99
30 28 19 20 21 25 27 27 26 24 18 15 13 12 9 8 10 8 8 8 8 11 11 12 14 17 16 16 15 15 18 29 34 45 55 71 81 92 95 90 99 98 97 100
27 23 20 23 24 21 27 24 27 29 34 30 16 20 11 10 11 9 8 8 8 8 8 8 10 14 16 17 17 20 21 31 37 44 57 61 58 82 96 90 98 96 98 98
32 30 27 26 25 23 35 31 34 37 43 34 25 21 13 10 10 9 8 7 8 8 8 8 8 13 14 15 17 19 20 26 36 47 49 56 69 84 90 85 96 97 96 98
35 24 22 24 23 26 28 43 43 39 42 50 29 28 16 13 9 8 7 7 8 7 8 8 11 12 16 16 18 26 26 26 38 47 52 65 71 88 83 89 92 98 100 98
39 32 28 22 32 29 36 67 85 69 56 48 25 28 20 14 9 8 9 9 25 14 13 28 32 37 41 35 35 35 41 50 52 54 53 66 75 88 88 86 87 95 100 99
65 69 34 26 32 40 44 49 76 94 63 47 23 31 19 12 10 8 8 30 37 42 48 53 56 66 69 65 60 56 60 74 73 67 60 70 82 86 90 83 80 87 93 92
65 53 30 27 30 51 90 93 64 91 66 60 34 26 17 10 10 10 11 31 43 65 73 72 72 73 76 72 70 69 65 68 80 83 93 90 80 84 91 95 89 81 85 91
54 63 32 34 33 42 56 71 88 64 66 56 42 35 27 19 16 11 20 45 73 75 82 80 83 79 78 75 75 79 75 80 94 99 98 94 91 88 94 97 93 87 86 91
47 71 53 45 48 50 61 83 92 93 56 50 50 37 18 21 19 28 29 62 86 92 76 54 51 79 96 96 94 90 89 91 87 89 92 95 97 95 99 97 92 90 87 90
47 72 72 50 37 34 46 50 79 96 91 69 39 32 13 15 44 49 46 83 93 96 97 95 96 98 96 99 90 90 86 90 93 92 88 90 100 100 100 94 92 89 88 91
46 69 89 55 42 47 54 46 38 65 79 74 61 36 16 39 65 85 83 88 86 85 88 92 96 97 97 98 98 98 99 98 99 99 98 100 100 99 100 99 94 94 91 94
43 73 94 94 77 61 70 50 40 56 97 58 44 45 47 59 78 81 92 96 93 86 83 91 97 94 97 98 96 96 99 100 100 100 100 100 100 100 99 99 93 94 88 94
47 72 64 60 55 52 50 49 91 98 80 70 58 63 64 79 87 87 95 94 96 92 90 87 92 94 93 90 88 93 98 100 100 100 99 100 100 100 100 97 94 90 86 89
44 70 59 68 53 50 48 89 94 97 96 77 73 74 80 79 84 87 88 94 98 74 71 73 81 86 90 89 92 89 88 94 99 99 100 100 96 95 99 99 100 95 88 86
54 60 66 76 58 56 92 99 94 100 95 95 98 96 76 79 85 92 96 93 97 96 67 70 73 79 83 86 86 85 93 91 87 93 99 99 100 100 100 100 100 93 93 89
51 55 62 77 68 85 82 50 57 86 98 100 96 95 85 88 96 98 99 98 99 96 77 72 74 76 78 80 84 80 79 90 93 91 88 93 98 100 100 100 99 100 100 93
69 82 89 90 89 57 81 67 77 83 98 92 100 97 96 83 74 71 71 74 74 69 70 72 73 74 76 79 78 76 71 85 91 92 95 94 90 92 99 100 95 100 99 100
44 75 84 85 93 95 94 76 72 48 95 95 98 100 98 93 96 98 72 70 67 70 69 70 71 69 74 79 80 76 77 80 95 99 97 94 98 96 88 94 100 95 95 100
77 80 86 88 85 95 85 76 62 76 98 98 100 100 100 98 99 100 88 68 67 69 72 72 73 77 78 82 81 83 91 91 99 99 99 97 93 97 94 93 92 100 95 97
95 97 94 88 90 89 91 71 91 99 98 100 100 100 99 100 100 99 94 92 76 76 73 76 79 84 87 84 85 100 100 100 99 98 98 99 99 96 97 94 96 88 100 100
93 97 96 95 97 98 98 97 99 98 98 98 99 100 99 99 98 95 87 88 88 84 86 82 83 85 86 89 97 100 100 98 98 99 98 98 98 100 99 96 100 97 98 100
59 64 92 86 96 89 99 98 99 98 98 98 99 100 100 99 98 97 96 96 98 96 95 94 92 92 94 100 100 100 98 99 99 99 98 100 100 99 98 99 98 96 95 97
79 79 86 80 74 72 92 100 100 99 98 98 99 100 98 98 97 98 99 100 100 100 95 95 97 99 100 100 100 100 99 100 99 99 99 100 100 99 100 100 100 100 99 100
77 85 91 91 96 96 92 94 87 99 99 99 98 99 98 97 96 99 100 100 95 94 100 96 98 100 100 100 100 100 99 98 97 99 99 99 100 100 99 100 99 98 98 98

GFSCGP_850_rhum_126.txt.gz
RH
17 26 29 24 24 26 28 30 33 28 22 22 21 20 16 12 9 8 8 11 11 12 15 16 15 14 15 15 15 14 12 15 33 54 52 68 58 59 66 68 74 93 92 87
29 31 26 21 22 25 25 28 27 23 22 26 26 26 20 16 12 10 8 9 10 12 11 10 12 13 16 16 15 14 13 12 20 38 35 52 51 51 66 81 80 94 97 92
26 29 24 25 28 28 27 29 30 36 34 30 32 32 23 16 14 10 8 7 8 9 9 10 9 8 14 16 15 14 14 13 15 25 47 64 63 67 78 90 94 91 92 96
28 28 29 30 29 26 33 32 36 38 43 55 35 61 36 25 22 15 9 8 9 8 8 8 8 8 9 16 16 16 14 14 18 32 43 51 51 50 51 60 79 87 90 96
31 38 35 34 28 27 36 30 38 42 55 52 44 49 35 24 23 16 9 8 8 7 8 8 8 8 8 13 18 17 17 18 24 30 38 44 56 42 50 62 78 91 86 94
35 29 29 31 28 27 26 38 42 45 60 80 49 49 42 30 23 17 10 8 7 7 7 7 8 14 12 8 19 17 20 23 27 34 46 44 44 46 61 78 88 91 86 94
36 36 33 27 35 31 40 54 84 71 70 60 33 36 35 24 19 16 13 10 8 8 8 13 14 11 14 12 15 36 32 33 51 57 52 46 46 53 60 71 85 79 85 93
71 58 38 31 36 44 46 72 95 94 78 69 52 52 29 19 16 13 11 10 18 52 55 76 58 64 67 59 51 47 44 50 58 56 50 54 62 70 72 80 85 80 83 88
69 56 32 29 29 38 78 83 66 97 90 87 61 38 24 20 19 16 16 12 88 100 100 96 92 90 87 80 76 68 70 69 70 69 72 72 71 77 76 93 92 85 76 86
49 63 33 34 32 42 58 45 88 75 93 92 46 42 40 27 23 22 33 40 67 94 98 91 88 85 83 83 81 78 74 75 81 83 88 93 88 81 78 87 88 86 81 82
42 72 50 45 58 46 53 67 63 85 80 94 92 45 54 54 69 91 84 55 56 99 100 100 99 96 86 85 68 77 71 75 82 97 98 100 98 82 83 85 91 90 88 83
51 69 73 49 39 39 40 50 58 96 83 80 92 57 40 46 87 90 89 95 100 100 100 100 100 100 77 86 84 88 85 82 87 89 92 97 100 100 99 98 99 85 95 92
42 66 81 46 47 45 52 50 51 63 68 84 89 66 40 49 80 86 90 97 97 100 100 100 96 100 97 95 94 97 98 97 85 86 89 90 89 98 99 100 98 100 98 94
45 74 77 90 73 61 72 63 70 98 96 82 77 62 64 75 80 89 93 98 100 100 98 85 94 99 99 98 99 95 98 99 99 100 97 95 94 95 98 96 100 99 92 92
47 75 67 53 49 53 59 90 89 99 96 96 89 78 89 90 92 93 98 97 94 99 100 99 95 85 94 93 91 96 99 100 100 100 100 100 100 99 99 100 100 97 92 90
49 68 60 61 50 50 59 72 80 92 93 78 75 80 78 89 88 90 90 92 96 98 100 98 98 90 91 87 92 91 86 89 98 100 100 100 99 99 100 100 100 100 95 85
58 66 68 66 52 58 96 95 78 98 91 98 97 99 96 89 89 94 98 99 100 100 98 88 83 96 93 85 80 79 90 88 84 92 100 100 100 100 99 100 100 99 95 98
62 66 67 78 71 89 81 58 59 79 92 96 95 97 100 97 95 86 89 99 100 99 98 93 80 84 92 86 78 72 76 89 86 87 88 92 99 100 100 100 100 98 98 100
66 86 92 94 91 64 76 64 78 91 91 88 98 98 98 99 97 99 99 76 76 81 83 80 78 82 84 80 77 72 70 83 93 88 86 93 90 90 97 100 100 100 100 100
55 77 88 90 98 94 89 67 66 70 92 94 98 99 100 98 96 100 93 89 86 82 80 75 74 80 81 85 85 76 77 82 94 99 99 92 93 96 92 91 98 100 100 100
87 89 93 95 95 94 84 78 68 75 95 98 100 100 99 98 99 99 99 94 78 80 87 80 80 86 94 94 96 98 98 98 100 100 99 99 97 96 93 94 92 93 99 99
93 88 100 94 90 87 90 69 84 94 97 98 99 100 99 99 99 99 96 90 92 84 85 82 81 83 89 96 100 100 100 99 99 97 96 98 98 100 97 96 91 93 95 100
84 84 90 91 94 95 90 90 97 96 98 98 98 99 99 99 99 98 99 97 90 92 88 90 91 90 99 100 100 100 99 99 97 96 97 97 97 97 98 99 94 98 100 100
65 69 93 96 97 88 96 92 96 99 100 98 98 98 98 98 97 98 97 94 97 94 92 96 96 100 100 100 99 99 99 98 95 95 97 98 99 97 94 98 99 98 99 100
68 78 88 84 85 96 99 87 87 98 98 99 99 98 99 97 94 96 99 97 94 99 98 100 100 100 100 100 100 99 99 98 93 94 98 99 99 99 98 96 99 99 100 100
78 80 89 86 87 91 95 86 83 94 94 99 96 98 98 97 96 95 95 98 94 95 94 91 97 98 100 100 100 100 98 94 91 92 94 97 99 98 99 100 100 100 100 100

GFSCGP_850_rhum_132.txt.gz
RH
23 34 36 30 27 26 30 35 40 30 24 30 33 34 31 24 24 25 25 25 23 22 16 14 12 5 8 8 8 12 15 16 20 44 57 63 59 49 43 36 37 36 35 38
32 41 28 26 27 30 32 38 38 30 28 31 34 34 26 25 24 24 24 23 23 22 20 19 16 14 11 9 8 11 18 17 18 30 28 51 53 53 50 44 43 46 40 41
32 34 28 28 31 36 36 40 38 42 35 32 33 36 24 23 25 24 23 22 23 23 22 21 20 18 13 9 8 7 8 15 17 18 38 63 71 74 70 62 50 48 50 48
37 33 31 33 33 36 45 32 39 44 46 55 41 69 37 31 28 26 29 35 23 22 22 21 20 19 16 9 7 7 7 10 12 19 28 35 35 58 48 48 49 51 55 57
34 34 35 36 34 33 39 37 44 41 52 61 56 69 54 32 34 29 53 71 55 23 22 22 20 16 16 8 7 7 8 10 11 15 20 30 38 29 32 51 58 55 58 59
33 31 34 33 31 32 34 45 48 56 65 74 55 60 46 43 35 42 61 74 81 84 23 20 18 16 14 7 7 9 13 15 20 30 30 43 55 29 46 58 67 60 57 54
44 40 35 32 39 36 46 69 76 65 57 51 37 60 54 44 31 57 60 69 69 89 78 84 59 31 12 8 9 10 14 14 19 23 44 62 59 43 28 39 57 63 50 50
50 51 37 33 34 39 64 70 90 99 71 58 52 76 62 29 39 49 66 65 87 89 97 96 99 99 53 23 12 17 14 15 19 34 68 94 74 65 67 63 58 55 41 39
62 54 37 32 34 39 52 65 56 91 78 87 62 48 32 54 63 68 76 68 85 100 100 100 100 99 99 99 71 30 20 29 31 51 85 95 87 76 89 84 76 65 50 46
51 65 39 37 38 37 49 45 76 91 97 79 58 50 60 80 83 76 75 86 94 98 100 97 100 100 100 98 99 94 49 42 36 60 76 86 88 86 74 68 63 57 59 62
52 55 46 40 58 47 58 73 70 79 91 89 85 56 60 72 75 88 83 93 99 100 100 99 94 99 100 100 97 98 63 74 95 89 59 59 64 67 66 62 58 55 61 70
52 74 69 46 42 43 48 48 66 98 87 84 93 72 45 53 66 80 96 99 100 100 100 100 92 100 100 100 100 100 98 92 76 68 64 59 52 48 56 74 69 69 69 78
51 64 74 40 35 33 45 43 46 59 87 92 94 65 46 63 85 90 96 98 100 100 99 99 93 99 100 100 100 100 99 100 100 100 80 73 71 69 74 74 76 74 73 77
47 69 63 62 44 60 70 54 54 87 96 94 79 88 69 85 95 93 96 98 100 99 99 98 98 100 100 99 100 100 99 98 100 98 98 100 96 92 97 75 75 76 77 83
47 61 81 66 58 60 57 61 83 96 87 97 89 87 88 99 98 98 100 93 97 100 99 98 98 99 89 87 96 100 98 99 100 100 100 100 99 100 99 98 100 96 97 89
53 46 58 64 52 57 62 86 82 82 91 79 76 70 85 99 99 97 99 100 98 99 99 98 98 98 94 90 86 95 100 100 100 100 100 100 100 100 100 99 99 100 99 100
54 64 72 72 56 68 95 84 84 86 83 95 97 95 99 98 97 98 99 99 100 96 96 97 97 97 97 95 100 95 93 98 99 100 99 100 100 100 100 100 100 100 100 100
64 68 72 82 79 85 65 64 63 75 90 92 89 96 98 97 100 99 100 100 100 96 98 96 95 92 93 98 100 93 88 89 93 94 99 98 98 97 100 100 100 100 99 100
56 75 95 94 96 72 81 70 77 83 94 88 89 93 98 94 93 98 100 100 100 100 99 98 92 95 100 100 100 100 99 94 92 95 99 98 97 93 90 89 94 99 100 100
65 78 94 95 96 99 71 66 76 74 96 91 88 93 98 94 95 89 99 97 100 100 97 95 94 100 100 100 100 100 100 99 99 100 100 100 100 100 97 89 84 84 87 98
94 88 93 97 90 85 80 78 74 89 90 90 95 99 99 99 98 98 97 100 100 100 100 98 94 100 100 99 99 99 98 98 99 97 97 98 98 98 100 98 89 85 84 86
79 89 97 96 99 88 84 69 67 90 87 96 94 98 97 100 98 98 97 94 100 100 99 93 94 100 99 99 98 97 96 98 95 93 91 92 91 94 97 99 96 92 95 96
90 82 84 83 79 80 83 81 84 87 95 98 96 97 98 99 98 98 97 94 91 93 98 92 92 99 99 98 100 95 98 94 90 88 87 90 86 85 87 89 97 97 100 100
63 80 94 79 74 92 88 85 85 83 88 91 98 97 97 96 97 96 96 96 92 95 95 91 90 94 98 98 99 98 95 92 92 90 92 93 94 92 90 91 92 98 98 99
72 81 92 92 79 91 89 87 84 78 86 92 99 98 98 97 96 96 94 95 96 91 93 92 91 96 98 96 98 97 94 93 91 88 89 91 95 97 97 99 100 100 100 100
73 74 88 84 67 79 86 88 86 75 94 93 92 94 98 100 99 96 93 95 95 94 91 89 92 95 96 95 94 93 91 92 92 91 89 92 94 95 95 95 98 100 100 100

GFSCGP_850_rhum_135.txt.gz
RH
26 23 28 28 27 26 28 31 27 22 21 26 23 21 20 20 21 21 22 24 26 34 35 34 34 21 20 16 9 5 7 8 10 26 41 47 53 54 54 48 34 31 30 31
28 32 28 25 26 25 25 26 27 26 26 26 23 26 22 20 19 22 23 28 46 45 48 58 55 32 22 21 15 9 8 8 9 17 21 26 30 53 53 52 43 34 34 32
29 31 27 26 32 28 27 30 32 32 30 29 33 20 24 16 20 21 24 43 48 51 55 58 60 52 25 23 20 13 10 8 8 15 38 43 74 85 78 61 51 39 36 37
33 31 28 30 31 32 32 27 30 36 37 36 35 33 24 23 20 21 27 42 50 59 61 72 78 69 32 20 21 17 8 8 8 8 33 28 70 59 59 50 43 43 41 40
32 33 32 31 29 32 29 30 35 37 41 49 44 48 28 17 25 31 40 50 60 65 79 91 96 75 29 22 23 16 8 7 8 8 20 48 67 35 39 55 53 49 47 43
35 32 30 27 29 32 32 40 42 48 54 53 39 44 28 26 40 56 55 62 70 84 93 96 100 99 61 24 21 17 12 8 8 9 20 31 32 50 65 44 57 44 51 50
36 37 34 32 32 32 38 49 34 32 36 24 33 38 33 38 51 53 58 70 77 97 99 100 100 98 100 90 29 16 13 8 8 10 13 24 44 56 62 33 34 39 60 59
33 37 35 32 32 34 50 59 50 51 45 39 41 51 30 42 42 50 61 91 96 99 100 100 100 100 100 100 92 13 11 8 14 20 21 23 26 55 68 45 31 43 65 52
49 40 36 32 34 36 45 48 48 72 62 72 46 34 29 41 48 58 73 96 98 100 100 100 98 99 100 99 100 100 32 14 18 25 24 30 44 88 97 71 82 70 61 66
45 43 36 35 37 36 43 39 57 61 79 70 42 41 59 57 63 69 93 97 99 100 100 99 100 98 100 100 100 95 100 92 76 70 71 66 83 97 100 98 99 96 91 73
51 44 43 40 44 37 49 53 54 62 67 75 66 40 49 62 66 94 95 99 100 100 100 100 99 97 100 100 100 100 100 100 98 98 99 99 97 98 97 99 98 97 97 95
54 60 45 36 34 36 42 46 60 74 77 70 68 54 44 57 67 95 96 100 99 100 99 99 99 88 100 100 100 100 100 100 100 89 82 80 77 83 92 97 82 73 76 92
57 56 42 35 35 36 47 39 42 54 68 77 82 46 41 57 73 83 96 99 99 99 99 98 97 90 99 100 100 100 100 100 100 98 88 88 84 90 82 98 90 84 73 74
43 59 58 40 32 40 53 46 44 78 87 70 62 72 52 70 92 85 97 98 99 99 99 98 97 96 98 98 100 100 100 100 100 88 93 98 81 84 90 79 72 66 68 55
43 57 65 47 38 40 42 47 56 97 77 90 69 71 72 88 98 98 98 92 90 97 99 98 96 96 98 97 100 98 100 98 98 93 97 100 100 98 96 90 80 67 69 80
49 33 50 52 42 45 50 59 78 76 77 77 68 64 70 83 92 94 89 98 96 96 100 100 97 97 96 98 97 90 100 100 100 100 100 100 100 100 100 100 99 98 94 85
44 47 61 55 54 60 82 74 73 79 76 86 93 86 82 86 92 99 98 99 98 97 100 100 98 97 98 97 100 100 99 100 95 100 100 100 99 100 100 100 100 100 100 100
54 57 60 67 70 85 64 55 57 67 79 82 83 83 88 91 89 100 99 100 99 100 100 100 100 100 100 98 97 100 100 100 100 100 100 100 100 98 99 99 100 100 100 99
52 59 81 80 78 68 89 74 58 64 77 80 83 81 85 87 79 91 100 100 100 100 100 100 100 100 100 100 99 100 100 100 99 98 98 99 100 100 92 88 91 98 99 100
57 73 82 86 83 83 62 66 73 69 80 79 84 83 88 87 85 78 100 100 98 100 100 100 100 100 100 98 96 97 100 99 97 98 97 98 98 99 98 89 87 87 88 91
78 72 80 78 79 69 68 72 77 80 73 84 94 90 96 93 99 98 100 99 100 98 98 97 100 100 100 95 93 94 98 98 97 95 93 91 95 97 99 99 94 94 91 91
76 85 87 87 89 80 76 69 68 75 81 92 94 97 100 100 100 100 100 99 98 95 92 93 100 100 98 94 93 93 95 98 95 92 92 90 87 89 92 98 99 99 100 99
76 68 70 67 62 72 78 72 74 75 86 96 90 99 98 100 100 100 100 100 98 96 94 94 100 100 95 94 94 93 97 93 93 90 92 94 93 87 89 90 97 97 99 99
67 79 74 68 75 79 87 85 85 82 82 89 90 94 100 100 99 96 99 100 98 95 93 95 97 100 98 92 92 94 97 95 92 91 94 97 96 92 94 96 98 100 99 100
69 81 89 80 66 88 94 90 88 82 82 92 95 92 91 98 96 94 95 96 95 96 95 95 98 98 97 94 93 92 95 94 93 94 93 93 93 93 93 94 96 97 99 100
72 76 74 71 56 69 85 92 90 82 84 89 93 89 87 95 97 94 95 96 94 94 94 95 96 98 98 96 97 95 91 90 90 91 94 94 94 94 92 92 94 96 97 98

GFSCGP_850_rhum_138.txt.gz
RH
18 13 11 14 17 17 16 14 10 8 11 16 10 10 9 10 11 13 16 18 20 28 30 34 41 46 56 51 46 34 24 28 27 30 60 83 83 94 91 80 43 35 28 32
15 12 19 18 18 16 13 12 10 12 11 16 14 15 11 11 13 15 17 23 30 33 35 41 55 62 70 67 58 45 30 23 24 22 44 71 78 76 90 91 58 41 35 31
12 19 21 20 20 16 12 15 15 15 14 14 19 9 12 12 12 17 28 33 35 44 51 63 71 78 83 83 69 57 32 24 22 19 35 70 90 95 94 90 84 53 48 37
18 23 21 21 17 18 14 17 18 19 20 15 20 12 12 12 17 25 30 33 43 62 79 81 88 94 97 97 97 76 46 29 22 22 31 63 83 86 83 88 91 62 53 50
24 24 23 19 19 20 17 20 24 26 26 26 22 23 10 13 29 31 29 35 54 66 77 98 100 99 96 98 100 99 43 33 24 21 24 60 77 77 53 77 94 93 60 56
23 24 18 18 19 22 21 26 25 30 30 27 19 21 13 26 35 35 38 53 80 73 88 100 100 100 99 98 98 99 50 30 26 26 23 63 79 79 75 84 95 90 60 53
24 23 24 22 18 20 22 24 15 16 20 16 19 24 19 30 32 36 56 81 86 86 96 98 100 98 98 98 98 100 70 30 27 26 25 68 78 87 91 78 50 92 78 79
20 28 24 23 21 21 32 33 30 38 18 19 19 30 19 26 32 53 92 96 88 94 95 99 100 99 100 98 100 100 99 32 24 24 30 57 74 75 76 73 31 88 90 60
20 27 25 22 23 24 35 36 35 66 40 44 24 19 14 29 35 51 83 89 90 93 99 100 99 99 100 99 100 100 100 87 26 24 32 51 76 77 72 79 88 93 97 84
31 38 25 26 27 29 34 31 53 45 57 40 20 21 30 44 47 55 74 79 86 96 100 100 100 98 99 98 100 100 100 100 93 66 58 71 81 86 85 87 92 94 98 96
26 28 34 29 32 31 40 43 40 46 46 46 39 26 38 48 51 63 70 76 83 92 99 99 97 95 100 93 100 100 100 100 100 95 96 94 90 90 91 100 100 99 100 99
41 31 31 25 26 26 28 35 40 56 55 44 47 42 31 39 52 67 69 77 82 88 97 100 98 97 100 85 99 100 100 100 100 100 99 100 100 100 98 100 98 99 100 99
35 33 27 28 32 37 34 31 30 41 51 56 57 31 21 34 51 73 76 75 79 81 98 100 94 96 100 90 99 100 100 100 100 100 100 98 100 100 100 100 100 100 99 99
35 41 49 30 33 30 40 30 27 52 72 43 36 36 34 49 67 74 75 75 76 79 90 100 95 95 96 96 97 100 100 100 100 99 99 99 100 93 97 100 100 99 98 97
36 47 44 23 17 20 21 28 34 70 67 80 42 45 43 65 75 79 79 78 75 78 88 99 98 95 96 96 97 98 100 100 100 100 100 100 100 97 99 86 84 99 100 98
34 27 28 21 17 19 21 31 46 54 58 46 41 42 59 65 75 78 89 78 83 79 87 98 95 97 97 98 98 97 98 99 100 100 98 100 95 91 100 83 82 80 89 94
32 25 28 26 32 38 59 56 60 94 53 64 79 87 78 74 76 89 96 82 87 82 85 93 97 98 98 98 98 98 100 96 88 97 99 100 84 90 99 95 94 82 88 100
28 24 36 42 52 69 60 41 40 52 65 61 68 78 84 79 78 96 87 88 84 82 82 86 92 100 100 100 100 100 99 99 99 99 100 100 100 100 99 100 100 100 99 100
27 34 56 59 45 49 68 57 50 45 52 60 72 73 78 77 71 95 91 90 83 82 81 86 92 98 100 100 100 100 98 94 91 92 94 97 99 99 100 100 100 100 100 100
38 45 54 58 56 51 52 50 50 47 67 59 70 72 80 78 76 67 96 88 85 82 84 89 90 94 100 100 100 100 100 97 97 98 94 93 95 99 99 99 100 100 100 100
51 55 64 54 54 52 50 50 59 67 74 64 84 78 83 90 90 95 95 88 86 85 87 91 90 93 100 100 100 100 100 99 99 99 94 92 90 93 99 99 99 99 100 100
61 63 69 54 57 59 51 57 59 60 62 70 77 78 85 91 92 92 88 88 89 88 88 90 91 96 100 100 100 100 100 99 99 100 99 94 94 95 94 99 100 99 99 98
67 49 52 49 49 54 54 54 66 66 66 75 77 79 93 95 97 90 86 88 90 94 96 94 93 97 100 100 100 100 100 100 99 99 99 97 93 96 99 100 100 99 99 100
56 55 51 50 62 53 60 67 70 71 72 78 82 86 90 96 98 94 89 88 91 97 100 100 98 100 100 100 100 100 100 100 100 100 99 100 95 92 91 94 97 98 98 99
61 59 75 51 50 63 67 70 77 77 83 85 97 86 87 97 98 97 94 96 97 98 100 100 100 100 100 100 100 100 100 100 100 98 96 97 99 99 99 94 95 95 98 99
55 88 65 56 52 48 61 78 85 84 87 92 89 88 90 100 100 96 100 100 100 100 100 100 99 97 97 100 100 99 91 99 100 100 97 91 97 99 97 98 100 98 99 98

GFSCGP_850_rhum_141.txt.gz
RH
13 12 11 7 11 12 9 7 6 5 6 9 8 8 6 7 8 11 13 19 25 27 33 43 54 56 60 62 68 71 72 74 60 43 32 25 60 84 85 78 76 81 42 29
13 11 9 12 11 11 9 9 8 7 7 8 8 9 7 8 10 13 20 23 25 30 43 48 55 64 75 82 94 84 80 83 81 53 34 28 24 69 83 84 78 80 56 35
11 13 14 12 14 12 9 11 10 10 8 8 10 9 9 9 10 17 21 25 31 49 52 57 64 74 88 86 91 90 95 95 91 80 41 26 24 36 77 85 83 83 82 60
8 15 16 14 13 13 10 12 11 10 12 9 9 10 6 9 12 18 23 34 52 61 58 65 70 81 89 92 98 100 98 98 95 73 66 27 22 27 61 86 87 87 91 82
13 18 17 15 12 14 11 14 13 15 17 16 11 15 8 8 20 24 35 49 64 58 66 72 77 84 92 98 99 99 98 99 99 76 68 32 24 24 49 64 86 91 96 91
11 14 13 12 14 14 12 15 15 16 19 22 14 17 8 17 26 31 45 57 57 62 73 73 79 87 96 99 100 100 100 100 98 86 71 35 24 28 54 69 82 93 93 98
18 18 14 16 14 16 15 18 18 25 25 18 15 16 12 19 25 32 42 52 58 64 74 76 82 96 99 98 100 100 98 97 88 73 54 33 29 20 59 67 77 79 93 98
20 24 19 16 13 14 17 19 21 31 16 14 11 15 18 20 24 31 40 51 61 65 72 77 88 98 100 98 100 100 98 98 90 77 34 31 28 28 55 73 82 75 62 67
20 18 15 16 15 13 26 26 24 43 21 33 16 15 11 21 27 32 40 49 63 66 77 80 93 100 100 99 100 99 99 98 99 95 58 29 31 28 58 73 82 76 56 51
17 31 21 19 17 19 24 23 42 39 42 27 12 13 18 34 37 40 46 54 65 68 76 80 93 100 99 99 100 99 100 100 100 100 68 54 29 38 69 74 74 88 49 44
21 25 25 23 24 24 32 31 28 31 28 34 26 20 28 33 37 47 53 59 66 68 75 80 90 95 100 97 98 96 100 100 100 100 100 89 55 55 66 73 79 65 85 79
22 27 32 28 19 16 20 32 30 46 38 34 35 30 23 30 38 47 56 61 64 65 70 82 92 98 100 90 95 88 100 100 100 100 100 100 100 86 65 76 73 80 87 96
28 27 29 27 26 24 28 24 25 29 39 40 42 27 20 24 43 52 59 62 64 64 69 86 92 87 95 95 97 93 97 100 100 100 100 100 100 92 94 92 74 79 93 83
24 27 38 31 26 28 37 24 22 35 56 36 30 26 19 37 54 58 67 65 60 65 68 85 90 83 95 96 97 97 96 99 100 100 100 100 99 100 100 100 99 100 93 98
25 37 32 18 14 20 26 26 24 55 43 52 38 34 27 52 61 64 71 67 63 67 69 80 92 90 86 92 95 94 97 97 100 96 100 100 100 99 96 89 96 100 100 100
31 28 25 25 15 12 13 18 23 27 29 28 30 31 51 55 59 60 75 67 67 67 71 75 86 90 90 91 95 95 100 95 99 100 95 99 100 99 99 100 86 98 90 98
34 26 23 21 13 12 30 24 28 82 39 49 64 57 60 58 62 69 84 71 70 67 69 71 75 83 90 94 97 97 95 96 99 96 95 94 100 98 100 100 95 100 97 94
33 26 21 23 33 53 37 32 26 32 56 46 44 55 69 64 61 84 74 71 69 67 68 68 70 76 83 93 96 97 96 99 99 94 95 94 89 97 100 100 88 100 99 100
21 22 35 39 42 39 52 42 37 36 42 34 55 60 59 60 62 96 72 71 68 68 67 70 71 74 81 91 96 95 96 100 100 99 98 94 97 100 100 94 98 100 100 100
21 21 37 38 43 46 41 36 37 33 55 44 52 56 64 63 56 52 79 74 69 69 68 72 72 73 82 91 94 91 97 100 100 100 100 100 99 99 100 100 100 100 100 99
39 40 49 43 44 44 39 39 39 55 68 50 73 63 62 78 76 84 82 73 69 70 72 74 72 76 84 92 94 94 98 100 100 100 100 100 100 100 99 100 99 99 100 99
35 46 55 42 45 50 42 44 46 55 52 59 65 66 70 72 81 77 70 68 69 70 73 78 74 78 87 93 96 98 100 100 100 100 100 100 100 99 100 100 100 99 100 100
51 36 42 38 42 48 40 44 53 50 49 60 63 65 82 86 87 75 70 67 69 73 77 80 82 81 88 95 98 100 100 100 100 100 100 100 98 96 92 97 99 99 100 100
44 41 46 49 49 42 44 46 48 50 56 63 65 70 79 83 89 79 74 71 73 76 80 83 88 91 93 98 100 100 100 100 100 100 100 100 100 100 93 91 92 92 92 93
50 46 49 41 40 47 47 49 56 60 66 70 74 69 72 82 89 83 78 81 82 83 85 89 94 100 100 100 100 100 100 100 100 100 100 98 100 100 100 99 98 96 96 97
49 85 63 53 43 40 53 55 62 67 73 76 73 74 77 89 87 86 85 96 94 96 99 99 100 100 100 100 97 100 98 100 100 100 100 100 99 100 100 100 100 100 99 96